Location: Bois de la Silve
(44.4667°N, 6.7833°E)
Time: 08:40:26
(UTC+00:00)

USA 267 - Pass Details

Date: 14 July 2020
Orbit: 1102 x 1106 km, 123.0° (Epoch: 12 August)

Event Time Altitude Azimuth Distance (km) Brightness Sun altitude
Exits shadow 00:32:10 41° 212° (SSW) 1,549 3.6 -22.8°
Maximum altitude 00:32:55 42° 229° (SW) 1,517 3.6 -22.8°
Drops below altitude 10° 00:39:04 10° 299° (WNW) 2,963 5.7 -22.5°
Sets 00:41:44 0° 307° (NW) 3,924 6.4 -22.4°
